Time,TemperatureF,DewpointF,PressureIn,WindDirection,WindDirectionDegrees,WindSpeedMPH,WindSpeedGustMPH,Humidity,HourlyPrecipIn,Conditions,Clouds,dailyrainin,SoftwareType,DateUTC
2013-11-03 00:01:00,32.7,29.3,30.09,ESE,105,0.0,0.0,87,0.00,,CLR,0.00,VWS V14.01,2013-11-03 05:01:00,
2013-11-03 00:06:00,32.8,29.4,30.09,ESE,105,0.0,0.0,87,0.00,,CLR,0.00,VWS V14.01,2013-11-03 05:06:00,
2013-11-03 00:11:00,32.9,29.5,30.08,ESE,105,0.0,1.0,87,0.00,,CLR,0.00,VWS V14.01,2013-11-03 05:11:00,
2013-11-03 00:16:00,33.1,29.7,30.08,ESE,105,0.0,1.0,87,0.00,,CLR,0.00,VWS V14.01,2013-11-03 05:16:00,
2013-11-03 00:21:00,33.4,30.0,30.09,ESE,105,0.0,1.0,87,0.00,,CLR,0.00,VWS V14.01,2013-11-03 05:21:00,
2013-11-03 00:26:00,33.3,29.6,30.09,ESE,106,0.0,1.0,86,0.00,,CLR,0.00,VWS V14.01,2013-11-03 05:26:00,
2013-11-03 00:31:00,32.9,29.2,30.09,ESE,106,0.0,0.0,86,0.00,,CLR,0.00,VWS V14.01,2013-11-03 05:31:00,
2013-11-03 00:36:00,32.6,29.2,30.09,ESE,105,0.0,0.0,87,0.00,,CLR,0.00,VWS V14.01,2013-11-03 05:36:00,
2013-11-03 00:41:00,32.5,29.4,30.09,ESE,105,0.0,0.0,88,0.00,,CLR,0.00,VWS V14.01,2013-11-03 05:41:00,
2013-11-03 00:46:00,32.5,29.4,30.08,ESE,105,0.0,0.0,88,0.00,,CLR,0.00,VWS V14.01,2013-11-03 05:46:00,
2013-11-03 00:51:00,32.4,29.2,30.08,ESE,105,0.0,1.0,88,0.00,,CLR,0.00,VWS V14.01,2013-11-03 05:51:00,
2013-11-03 00:56:00,32.4,29.5,30.08,ESE,105,0.0,1.0,89,0.00,,CLR,0.00,VWS V14.01,2013-11-03 05:56:00,
2013-11-03 01:00:00,33.1,29.9,30.11,SE,145,0.0,1.0,88,0.00,,CLR,0.00,VWS V14.01,2013-11-03 06:00:00,
2013-11-03 01:01:00,32.7,29.8,30.09,ESE,105,0.0,1.0,89,0.00,,CLR,0.00,VWS V14.01,2013-11-03 06:01:00,
2013-11-03 01:02:00,33.1,29.9,30.11,SE,145,0.0,1.0,88,0.00,,CLR,0.00,VWS V14.01,2013-11-03 06:02:00,
2013-11-03 01:03:00,33.1,29.9,30.11,SE,145,0.0,1.0,88,0.00,,CLR,0.00,VWS V14.01,2013-11-03 06:03:00,
2013-11-03 01:04:00,33.2,29.8,30.11,SE,145,0.0,1.0,87,0.00,,CLR,0.00,VWS V14.01,2013-11-03 06:04:00,
2013-11-03 01:05:00,33.2,29.8,30.11,SE,145,0.0,1.0,87,0.00,,CLR,0.00,VWS V14.01,2013-11-03 06:05:00,
2013-11-03 01:06:00,33.0,29.8,30.09,ESE,113,0.0,1.0,88,0.00,,CLR,0.00,VWS V14.01,2013-11-03 06:06:00,
2013-11-03 01:11:00,33.4,30.2,30.09,SE,133,0.0,1.0,88,0.00,,CLR,0.00,VWS V14.01,2013-11-03 06:11:00,
2013-11-03 01:16:00,33.6,30.1,30.09,SE,133,0.0,1.0,87,0.00,,CLR,0.00,VWS V14.01,2013-11-03 06:16:00,
2013-11-03 01:21:00,33.5,30.0,30.10,SE,133,0.0,1.0,87,0.00,,CLR,0.00,VWS V14.01,2013-11-03 06:21:00,
2013-11-03 01:26:00,33.3,29.6,30.10,SE,133,0.0,1.0,86,0.00,,CLR,0.00,VWS V14.01,2013-11-03 06:26:00,
2013-11-03 01:31:00,33.2,29.8,30.10,SE,133,0.0,0.0,87,0.00,,CLR,0.00,VWS V14.01,2013-11-03 06:31:00,
2013-11-03 01:36:00,33.1,29.7,30.10,SE,133,0.0,0.0,87,0.00,,CLR,0.00,VWS V14.01,2013-11-03 06:36:00,
2013-11-03 01:41:00,33.1,29.7,30.10,SE,133,0.0,0.0,87,0.00,,CLR,0.00,VWS V14.01,2013-11-03 06:41:00,
2013-11-03 01:46:00,33.1,29.7,30.10,SE,133,0.0,0.0,87,0.00,,CLR,0.00,VWS V14.01,2013-11-03 06:46:00,
2013-11-03 01:51:00,33.1,29.7,30.11,SE,146,0.0,0.0,87,0.00,,CLR,0.00,VWS V14.01,2013-11-03 06:51:00,
2013-11-03 01:56:00,33.0,29.8,30.11,SE,145,0.0,0.0,88,0.00,,CLR,0.00,VWS V14.01,2013-11-03 06:56:00,
2013-11-03 01:01:00,33.2,29.8,30.11,SE,145,0.0,1.0,87,0.00,,CLR,0.00,VWS V14.01,2013-11-03 07:01:00,
2013-11-03 01:06:00,33.2,29.8,30.11,SE,145,0.0,1.0,87,0.00,,CLR,0.00,VWS V14.01,2013-11-03 07:06:00,
2013-11-03 01:11:00,33.1,29.7,30.11,SE,146,0.0,1.0,87,0.00,,CLR,0.00,VWS V14.01,2013-11-03 07:11:00,
2013-11-03 01:16:00,33.0,29.6,30.11,SE,143,0.0,1.0,87,0.00,,CLR,0.00,VWS V14.01,2013-11-03 07:16:00,
2013-11-03 01:21:00,32.9,29.7,30.11,SE,129,0.0,1.0,88,0.00,,CLR,0.00,VWS V14.01,2013-11-03 07:21:00,
2013-11-03 01:26:00,32.9,29.7,30.11,SE,125,0.0,1.0,88,0.00,,CLR,0.00,VWS V14.01,2013-11-03 07:26:00,
2013-11-03 01:31:00,32.7,29.5,30.11,ESE,113,1.0,1.0,88,0.00,,CLR,0.00,VWS V14.01,2013-11-03 07:31:00,
2013-11-03 01:36:00,32.5,29.6,30.11,ESE,110,0.0,1.0,89,0.00,,CLR,0.00,VWS V14.01,2013-11-03 07:36:00,
2013-11-03 01:41:00,32.5,29.6,30.11,ESE,110,1.0,1.0,89,0.00,,CLR,0.00,VWS V14.01,2013-11-03 07:41:00,
2013-11-03 01:46:00,32.5,29.6,30.11,ESE,110,0.0,1.0,89,0.00,,CLR,0.00,VWS V14.01,2013-11-03 07:46:00,
2013-11-03 01:51:00,32.5,29.6,30.11,ESE,110,0.0,1.0,89,0.00,,CLR,0.00,VWS V14.01,2013-11-03 07:51:00,
2013-11-03 01:56:00,32.5,29.6,30.11,ESE,110,0.0,1.0,89,0.00,,CLR,0.00,VWS V14.01,2013-11-03 07:56:00,
2013-11-03 02:01:00,32.5,29.6,30.11,ESE,111,0.0,0.0,89,0.00,,CLR,0.00,VWS V14.01,2013-11-03 08:01:00,
2013-11-03 02:06:00,32.4,29.5,30.11,ESE,110,0.0,1.0,89,0.00,,CLR,0.00,VWS V14.01,2013-11-03 08:06:00,
2013-11-03 02:11:00,32.3,29.4,30.11,ESE,109,1.0,2.0,89,0.00,,CLR,0.00,VWS V14.01,2013-11-03 08:11:00,
2013-11-03 02:16:00,32.2,29.3,30.11,ESE,110,1.0,2.0,89,0.00,,CLR,0.00,VWS V14.01,2013-11-03 08:16:00,
2013-11-03 02:21:00,32.2,29.3,30.11,ESE,105,1.0,2.0,89,0.00,,CLR,0.00,VWS V14.01,2013-11-03 08:21:00,
2013-11-03 02:26:00,32.2,29.3,30.11,ESE,105,1.0,2.0,89,0.00,,CLR,0.00,VWS V14.01,2013-11-03 08:26:00,
2013-11-03 02:31:00,32.3,29.4,30.11,ESE,113,0.0,2.0,89,0.00,,CLR,0.00,VWS V14.01,2013-11-03 08:31:00,
2013-11-03 02:36:00,32.4,29.2,30.11,ESE,113,1.0,2.0,88,0.00,,CLR,0.00,VWS V14.01,2013-11-03 08:36:00,
2013-11-03 02:41:00,32.4,29.2,30.11,ESE,118,0.0,2.0,88,0.00,,CLR,0.00,VWS V14.01,2013-11-03 08:41:00,
2013-11-03 02:46:00,32.4,29.2,30.11,ESE,113,1.0,2.0,88,0.00,,CLR,0.00,VWS V14.01,2013-11-03 08:46:00,
2013-11-03 02:51:00,32.5,29.6,30.12,SE,138,0.0,2.0,89,0.00,,CLR,0.00,VWS V14.01,2013-11-03 08:51:00,
2013-11-03 02:56:00,32.8,29.6,30.12,SSE,148,1.0,2.0,88,0.00,,CLR,0.00,VWS V14.01,2013-11-03 08:56:00,
2013-11-03 03:01:00,33.1,29.9,30.12,SE,138,0.0,2.0,88,0.00,,CLR,0.00,VWS V14.01,2013-11-03 09:01:00,
2013-11-03 03:06:00,33.5,30.3,30.12,SE,129,1.0,2.0,88,0.00,,CLR,0.00,VWS V14.01,2013-11-03 09:06:00,
2013-11-03 03:11:00,33.8,30.4,30.11,ESE,122,1.0,2.0,87,0.00,,CLR,0.00,VWS V14.01,2013-11-03 09:11:00,
2013-11-03 03:16:00,34.0,30.3,30.11,ESE,116,0.0,2.0,86,0.00,,CLR,0.00,VWS V14.01,2013-11-03 09:16:00,
2013-11-03 03:21:00,34.0,30.3,30.11,SE,129,0.0,2.0,86,0.00,,CLR,0.00,VWS V14.01,2013-11-03 09:21:00,
2013-11-03 03:26:00,34.0,30.3,30.11,ESE,113,1.0,2.0,86,0.00,,CLR,0.00,VWS V14.01,2013-11-03 09:26:00,
2013-11-03 03:31:00,34.1,30.4,30.11,ESE,109,1.0,1.0,86,0.00,,CLR,0.00,VWS V14.01,2013-11-03 09:31:00,
2013-11-03 03:36:00,33.9,30.2,30.11,ESE,105,1.0,2.0,86,0.00,,CLR,0.00,VWS V14.01,2013-11-03 09:36:00,
2013-11-03 03:41:00,33.7,30.0,30.11,ESE,105,1.0,2.0,86,0.00,,CLR,0.00,VWS V14.01,2013-11-03 09:41:00,
2013-11-03 03:46:00,33.5,29.8,30.11,ESE,105,1.0,2.0,86,0.00,,CLR,0.00,VWS V14.01,2013-11-03 09:46:00,
2013-11-03 03:51:00,33.2,29.8,30.11,East,101,1.0,2.0,87,0.00,,CLR,0.00,VWS V14.01,2013-11-03 09:51:00,
2013-11-03 03:56:00,33.0,29.6,30.11,ESE,105,2.0,2.0,87,0.00,,CLR,0.00,VWS V14.01,2013-11-03 09:56:00,
2013-11-03 04:01:00,33.0,29.6,30.11,East,98,3.0,3.0,87,0.00,,CLR,0.00,VWS V14.01,2013-11-03 10:01:00,
2013-11-03 04:06:00,33.1,29.7,30.11,ESE,102,3.0,3.0,87,0.00,,CLR,0.00,VWS V14.01,2013-11-03 10:06:00,
2013-11-03 04:11:00,33.1,29.7,30.10,East,100,2.0,3.0,87,0.00,,CLR,0.00,VWS V14.01,2013-11-03 10:11:00,
2013-11-03 04:16:00,33.0,29.6,30.10,East,101,1.0,3.0,87,0.00,,CLR,0.00,VWS V14.01,2013-11-03 10:16:00,
2013-11-03 04:21:00,32.9,29.7,30.10,ESE,107,1.0,3.0,88,0.00,,CLR,0.00,VWS V14.01,2013-11-03 10:21:00,
2013-11-03 04:26:00,32.8,29.6,30.10,ESE,105,1.0,3.0,88,0.00,,CLR,0.00,VWS V14.01,2013-11-03 10:26:00,
2013-11-03 04:31:00,32.7,29.5,30.10,ESE,105,1.0,2.0,88,0.00,,CLR,0.00,VWS V14.01,2013-11-03 10:31:00,
2013-11-03 04:36:00,32.7,29.5,30.10,ESE,103,1.0,2.0,88,0.00,,CLR,0.00,VWS V14.01,2013-11-03 10:36:00,
2013-11-03 04:41:00,32.7,29.5,30.10,ESE,107,1.0,2.0,88,0.00,,CLR,0.00,VWS V14.01,2013-11-03 10:41:00,
2013-11-03 04:46:00,32.7,29.5,30.10,ESE,105,1.0,2.0,88,0.00,,CLR,0.00,VWS V14.01,2013-11-03 10:46:00,
2013-11-03 04:51:00,32.9,29.7,30.10,ESE,113,1.0,2.0,88,0.00,,CLR,0.00,VWS V14.01,2013-11-03 10:51:00,
2013-11-03 04:56:00,33.1,29.9,30.10,ESE,113,1.0,2.0,88,0.00,,CLR,0.00,VWS V14.01,2013-11-03 10:56:00,
2013-11-03 05:01:00,33.2,29.8,30.10,ESE,110,2.0,2.0,87,0.00,,CLR,0.00,VWS V14.01,2013-11-03 11:01:00,
2013-11-03 05:06:00,33.3,29.9,30.09,ESE,116,2.0,2.0,87,0.00,,CLR,0.00,VWS V14.01,2013-11-03 11:06:00,
2013-11-03 05:11:00,33.4,30.0,30.09,ESE,111,2.0,3.0,87,0.00,,CLR,0.00,VWS V14.01,2013-11-03 11:11:00,
2013-11-03 05:16:00,33.3,29.6,30.09,ESE,107,2.0,4.0,86,0.00,,CLR,0.00,VWS V14.01,2013-11-03 11:16:00,
2013-11-03 05:21:00,33.1,29.4,30.09,ESE,102,3.0,4.0,86,0.00,,CLR,0.00,VWS V14.01,2013-11-03 11:21:00,
2013-11-03 05:26:00,33.0,29.6,30.08,East,90,2.0,4.0,87,0.00,,CLR,0.00,VWS V14.01,2013-11-03 11:26:00,
2013-11-03 05:31:00,33.0,29.6,30.09,ESE,102,2.0,3.0,87,0.00,,CLR,0.00,VWS V14.01,2013-11-03 11:31:00,
2013-11-03 05:36:00,33.0,29.6,30.09,East,91,1.0,3.0,87,0.00,,CLR,0.00,VWS V14.01,2013-11-03 11:36:00,
2013-11-03 05:41:00,32.9,29.5,30.09,East,98,1.0,3.0,87,0.00,,CLR,0.00,VWS V14.01,2013-11-03 11:41:00,
2013-11-03 05:46:00,32.9,29.5,30.09,ESE,102,2.0,3.0,87,0.00,,CLR,0.00,VWS V14.01,2013-11-03 11:46:00,
2013-11-03 05:51:00,32.9,29.5,30.09,ESE,104,1.0,3.0,87,0.00,,CLR,0.00,VWS V14.01,2013-11-03 11:51:00,
2013-11-03 05:56:00,32.9,29.5,30.09,ESE,110,1.0,3.0,87,0.00,,CLR,0.00,VWS V14.01,2013-11-03 11:56:00,
2013-11-03 06:01:00,32.9,29.5,30.09,ESE,108,1.0,2.0,87,0.00,,CLR,0.00,VWS V14.01,2013-11-03 12:01:00,
2013-11-03 06:06:00,33.0,29.6,30.09,ESE,102,2.0,3.0,87,0.00,,CLR,0.00,VWS V14.01,2013-11-03 12:06:00,
2013-11-03 06:11:00,33.1,29.7,30.09,ESE,107,2.0,3.0,87,0.00,,CLR,0.00,VWS V14.01,2013-11-03 12:11:00,
2013-11-03 06:16:00,33.1,29.7,30.09,ESE,115,2.0,3.0,87,0.00,,CLR,0.00,VWS V14.01,2013-11-03 12:16:00,
2013-11-03 06:21:00,33.1,29.7,30.09,East,99,2.0,3.0,87,0.00,,CLR,0.00,VWS V14.01,2013-11-03 12:21:00,
2013-11-03 06:26:00,33.2,29.8,30.09,ESE,118,2.0,3.0,87,0.00,,CLR,0.00,VWS V14.01,2013-11-03 12:26:00,
2013-11-03 06:31:00,33.1,29.7,30.09,East,98,3.0,3.0,87,0.00,,CLR,0.00,VWS V14.01,2013-11-03 12:31:00,
2013-11-03 06:36:00,33.1,29.7,30.09,ESE,104,2.0,3.0,87,0.00,,CLR,0.00,VWS V14.01,2013-11-03 12:36:00,
2013-11-03 06:41:00,33.1,29.7,30.09,ESE,110,3.0,3.0,87,0.00,,CLR,0.00,VWS V14.01,2013-11-03 12:41:00,
2013-11-03 06:46:00,33.2,29.8,30.09,ESE,113,2.0,4.0,87,0.00,,CLR,0.00,VWS V14.01,2013-11-03 12:46:00,
2013-11-03 06:51:00,33.3,29.9,30.09,SE,125,2.0,4.0,87,0.00,,CLR,0.00,VWS V14.01,2013-11-03 12:51:00,
2013-11-03 06:56:00,33.6,30.1,30.09,ESE,109,3.0,4.0,87,0.00,,CLR,0.00,VWS V14.01,2013-11-03 12:56:00,
2013-11-03 07:01:00,33.9,30.5,30.09,SE,124,1.0,3.0,87,0.00,,CLR,0.00,VWS V14.01,2013-11-03 13:01:00,
2013-11-03 07:06:00,34.2,30.5,30.10,SE,129,2.0,3.0,86,0.00,,CLR,0.00,VWS V14.01,2013-11-03 13:06:00,
2013-11-03 07:11:00,34.3,30.6,30.10,ESE,113,2.0,3.0,86,0.00,,CLR,0.00,VWS V14.01,2013-11-03 13:11:00,
2013-11-03 07:16:00,34.5,30.5,30.10,ESE,117,2.0,4.0,85,0.00,,CLR,0.00,VWS V14.01,2013-11-03 13:16:00,
2013-11-03 07:21:00,34.6,30.6,30.10,ESE,108,2.0,4.0,85,0.00,,CLR,0.00,VWS V14.01,2013-11-03 13:21:00,
2013-11-03 07:26:00,34.8,30.8,30.10,ESE,122,1.0,4.0,85,0.00,,CLR,0.00,VWS V14.01,2013-11-03 13:26:00,
2013-11-03 07:31:00,34.9,30.9,30.10,ESE,114,2.0,5.0,85,0.00,,CLR,0.00,VWS V14.01,2013-11-03 13:31:00,
2013-11-03 07:36:00,35.0,31.0,30.10,ESE,120,2.0,6.0,85,0.00,,SCT120,0.00,VWS V14.01,2013-11-03 13:36:00,
2013-11-03 07:41:00,35.4,31.1,30.10,ESE,123,2.0,6.0,84,0.00,,SCT120,0.00,VWS V14.01,2013-11-03 13:41:00,
2013-11-03 07:46:00,35.6,31.2,30.10,ESE,117,3.0,6.0,84,0.00,,SCT120,0.00,VWS V14.01,2013-11-03 13:46:00,
2013-11-03 07:51:00,35.9,31.5,30.10,ESE,119,2.0,6.0,84,0.00,,SCT120,0.00,VWS V14.01,2013-11-03 13:51:00,
2013-11-03 07:56:00,36.2,31.5,30.10,ESE,111,3.0,6.0,83,0.00,,CLR,0.00,VWS V14.01,2013-11-03 13:56:00,
2013-11-03 08:01:00,36.6,31.9,30.09,SE,133,3.0,6.0,83,0.00,,SCT120,0.00,VWS V14.01,2013-11-03 14:01:00,
2013-11-03 08:06:00,37.1,31.8,30.09,ESE,103,5.0,6.0,81,0.00,,SCT120,0.00,VWS V14.01,2013-11-03 14:06:00,
2013-11-03 08:11:00,37.4,32.1,30.09,ESE,103,3.0,6.0,81,0.00,,SCT120,0.00,VWS V14.01,2013-11-03 14:11:00,
2013-11-03 08:16:00,38.0,32.4,30.09,SE,125,5.0,7.0,80,0.00,,CLR,0.00,VWS V14.01,2013-11-03 14:16:00,
2013-11-03 08:21:00,38.6,32.3,30.09,SE,131,2.0,10.0,78,0.00,,SCT120,0.00,VWS V14.01,2013-11-03 14:21:00,
2013-11-03 08:26:00,39.2,32.6,30.09,SE,128,3.0,10.0,77,0.00,,SCT120,0.00,VWS V14.01,2013-11-03 14:26:00,
2013-11-03 08:31:00,39.7,32.4,30.08,SSE,153,5.0,9.0,75,0.00,,CLR,0.00,VWS V14.01,2013-11-03 14:31:00,
2013-11-03 08:36:00,40.3,32.7,30.08,SSE,151,1.0,9.0,74,0.00,,CLR,0.00,VWS V14.01,2013-11-03 14:36:00,
2013-11-03 08:41:00,40.9,33.3,30.09,South,173,11.0,11.0,74,0.00,,CLR,0.00,VWS V14.01,2013-11-03 14:41:00,
2013-11-03 08:46:00,41.3,33.0,30.09,SSW,198,14.0,14.0,72,0.00,,CLR,0.00,VWS V14.01,2013-11-03 14:46:00,
2013-11-03 08:51:00,41.6,32.9,30.08,SE,139,9.0,14.0,71,0.00,,CLR,0.00,VWS V14.01,2013-11-03 14:51:00,
2013-11-03 08:56:00,41.8,32.8,30.08,SSE,162,11.0,14.0,70,0.00,,CLR,0.00,VWS V14.01,2013-11-03 14:56:00,
2013-11-03 09:01:00,41.9,32.5,30.08,SE,126,5.0,10.0,69,0.00,,CLR,0.00,VWS V14.01,2013-11-03 15:01:00,
2013-11-03 09:06:00,42.1,32.7,30.08,SE,135,4.0,13.0,69,0.00,,CLR,0.00,VWS V14.01,2013-11-03 15:06:00,
2013-11-03 09:11:00,42.5,33.4,30.08,SE,129,6.0,13.0,70,0.00,,CLR,0.00,VWS V14.01,2013-11-03 15:11:00,
2013-11-03 09:16:00,42.7,33.2,30.08,SSE,162,5.0,13.0,69,0.00,,CLR,0.00,VWS V14.01,2013-11-03 15:16:00,
2013-11-03 09:21:00,42.6,33.2,30.08,SE,124,6.0,13.0,69,0.00,,CLR,0.00,VWS V14.01,2013-11-03 15:21:00,
2013-11-03 09:26:00,42.6,33.2,30.08,SE,146,2.0,13.0,69,0.00,,CLR,0.00,VWS V14.01,2013-11-03 15:26:00,
2013-11-03 09:31:00,42.7,33.2,30.08,SE,125,3.0,14.0,69,0.00,,CLR,0.00,VWS V14.01,2013-11-03 15:31:00,
2013-11-03 09:36:00,42.9,33.4,30.08,SSE,158,4.0,14.0,69,0.00,,CLR,0.00,VWS V14.01,2013-11-03 15:36:00,
2013-11-03 09:41:00,43.0,33.5,30.07,South,191,5.0,14.0,69,0.00,,CLR,0.00,VWS V14.01,2013-11-03 15:41:00,
2013-11-03 09:46:00,43.1,33.6,30.08,ESE,113,3.0,15.0,69,0.00,,CLR,0.00,VWS V14.01,2013-11-03 15:46:00,
2013-11-03 09:51:00,43.3,33.8,30.07,ESE,116,6.0,16.0,69,0.00,,CLR,0.00,VWS V14.01,2013-11-03 15:51:00,
2013-11-03 09:56:00,43.7,33.8,30.07,SW,221,4.0,16.0,68,0.00,,CLR,0.00,VWS V14.01,2013-11-03 15:56:00,
2013-11-03 10:00:00,44.0,34.1,30.07,SSE,163,3.0,11.0,68,0.00,,CLR,0.00,VWS V14.01,2013-11-03 16:00:00,
2013-11-03 10:05:00,44.2,34.3,30.07,ESE,113,4.0,14.0,68,0.00,,CLR,0.00,VWS V14.01,2013-11-03 16:05:00,
2013-11-03 10:10:00,44.5,34.2,30.07,SSW,198,8.0,14.0,67,0.00,,CLR,0.00,VWS V14.01,2013-11-03 16:10:00,
2013-11-03 10:15:00,44.7,34.8,30.06,SSE,152,3.0,14.0,68,0.00,,CLR,0.00,VWS V14.01,2013-11-03 16:15:00,
2013-11-03 10:20:00,45.1,34.4,30.06,SE,143,7.0,14.0,66,0.00,,CLR,0.00,VWS V14.01,2013-11-03 16:20:00,
2013-11-03 10:25:00,45.3,34.6,30.06,SSE,160,6.0,14.0,66,0.00,,CLR,0.00,VWS V14.01,2013-11-03 16:25:00,
2013-11-03 10:30:00,45.7,35.0,30.06,SSE,154,5.0,10.0,66,0.00,,CLR,0.00,VWS V14.01,2013-11-03 16:30:00,
2013-11-03 10:35:00,46.2,35.1,30.06,ESE,122,3.0,11.0,65,0.00,,CLR,0.00,VWS V14.01,2013-11-03 16:35:00,
2013-11-03 10:40:00,46.6,35.5,30.06,SE,136,3.0,17.0,65,0.00,,CLR,0.00,VWS V14.01,2013-11-03 16:40:00,
2013-11-03 10:45:00,46.8,35.3,30.06,SE,134,6.0,17.0,64,0.00,,CLR,0.00,VWS V14.01,2013-11-03 16:45:00,
2013-11-03 10:50:00,47.0,35.1,30.06,SE,128,4.0,17.0,63,0.00,,CLR,0.00,VWS V14.01,2013-11-03 16:50:00,
2013-11-03 10:55:00,47.5,35.5,30.06,South,172,10.0,17.0,63,0.00,,CLR,0.00,VWS V14.01,2013-11-03 16:55:00,
2013-11-03 11:00:00,47.9,35.5,30.05,SSE,148,9.0,12.0,62,0.00,,CLR,0.00,VWS V14.01,2013-11-03 17:00:00,
2013-11-03 11:06:00,47.7,35.3,30.05,ESE,122,7.0,12.0,62,0.00,,CLR,0.00,VWS V14.01,2013-11-03 17:06:00,
2013-11-03 11:10:00,47.9,35.5,30.05,ESE,110,7.0,14.0,62,0.00,,CLR,0.00,VWS V14.01,2013-11-03 17:10:00,
2013-11-03 11:15:00,48.3,35.9,30.05,SE,128,4.0,14.0,62,0.00,,CLR,0.00,VWS V14.01,2013-11-03 17:15:00,
2013-11-03 11:20:00,48.3,35.5,30.04,SW,217,7.0,15.0,61,0.00,,CLR,0.00,VWS V14.01,2013-11-03 17:20:00,
2013-11-03 11:25:00,48.4,35.6,30.04,SSE,157,6.0,22.0,61,0.00,,CLR,0.00,VWS V14.01,2013-11-03 17:25:00,
2013-11-03 11:30:00,48.6,35.8,30.03,SSE,158,6.0,13.0,61,0.00,,CLR,0.00,VWS V14.01,2013-11-03 17:30:00,
2013-11-03 11:35:00,49.0,36.2,30.03,SE,136,5.0,14.0,61,0.00,,CLR,0.00,VWS V14.01,2013-11-03 17:35:00,
2013-11-03 11:40:00,49.2,36.3,30.03,SSE,159,5.0,14.0,61,0.00,,CLR,0.00,VWS V14.01,2013-11-03 17:40:00,
2013-11-03 11:45:00,49.3,36.0,30.03,SE,143,4.0,14.0,60,0.00,,CLR,0.00,VWS V14.01,2013-11-03 17:45:00,
2013-11-03 11:50:00,49.4,36.1,30.02,South,183,13.0,14.0,60,0.00,,SCT100,0.00,VWS V14.01,2013-11-03 17:50:00,
2013-11-03 11:55:00,49.5,36.2,30.02,South,175,4.0,14.0,60,0.00,,SCT100,0.00,VWS V14.01,2013-11-03 17:55:00,
2013-11-03 12:00:00,49.5,36.2,30.02,South,181,7.0,18.0,60,0.00,,SCT100,0.00,VWS V14.01,2013-11-03 18:00:00,
2013-11-03 12:05:00,49.7,36.4,30.01,SSE,166,5.0,18.0,60,0.00,,SCT100,0.00,VWS V14.01,2013-11-03 18:05:00,
2013-11-03 12:10:00,49.9,36.6,30.01,SSE,165,6.0,18.0,60,0.00,,SCT100,0.00,VWS V14.01,2013-11-03 18:10:00,
2013-11-03 12:16:00,50.1,36.3,30.00,SSE,167,6.0,18.0,59,0.00,,SCT100,0.00,VWS V14.01,2013-11-03 18:16:00,
2013-11-03 12:21:00,50.5,36.7,30.00,SE,128,5.0,18.0,59,0.00,,CLR,0.00,VWS V14.01,2013-11-03 18:21:00,
2013-11-03 12:26:00,50.6,36.4,30.00,SSE,147,9.0,18.0,58,0.00,,CLR,0.00,VWS V14.01,2013-11-03 18:26:00,
2013-11-03 12:31:00,50.9,36.7,29.99,SE,139,12.0,13.0,58,0.00,,CLR,0.00,VWS V14.01,2013-11-03 18:31:00,
2013-11-03 12:36:00,51.2,36.5,29.99,SSE,148,13.0,19.0,57,0.00,,OVC110,0.00,VWS V14.01,2013-11-03 18:36:00,
2013-11-03 12:41:00,51.2,37.0,29.99,South,169,5.0,19.0,58,0.00,,OVC110,0.00,VWS V14.01,2013-11-03 18:41:00,
2013-11-03 12:46:00,51.6,36.9,29.99,SE,135,4.0,19.0,57,0.00,,OVC110,0.00,VWS V14.01,2013-11-03 18:46:00,
2013-11-03 12:51:00,51.7,37.0,29.98,ESE,107,5.0,19.0,57,0.00,,OVC100,0.00,VWS V14.01,2013-11-03 18:51:00,
2013-11-03 12:55:00,51.6,36.4,29.98,SSE,148,3.0,19.0,56,0.00,,OVC100,0.00,VWS V14.01,2013-11-03 18:55:00,
2013-11-03 13:00:00,51.7,36.5,29.97,SSW,211,10.0,12.0,56,0.00,,OVC100,0.00,VWS V14.01,2013-11-03 19:00:00,
2013-11-03 13:05:00,52.2,36.5,29.97,ESE,116,12.0,15.0,55,0.00,,OVC100,0.00,VWS V14.01,2013-11-03 19:05:00,
2013-11-03 13:10:00,51.9,36.7,29.97,ESE,105,6.0,15.0,56,0.00,,OVC100,0.00,VWS V14.01,2013-11-03 19:10:00,
2013-11-03 13:15:00,52.0,36.8,29.97,ESE,121,11.0,15.0,56,0.00,,OVC100,0.00,VWS V14.01,2013-11-03 19:15:00,
2013-11-03 13:20:00,51.7,36.1,29.97,SE,125,10.0,16.0,55,0.00,,OVC100,0.00,VWS V14.01,2013-11-03 19:20:00,
2013-11-03 13:25:00,51.5,35.9,29.96,SE,132,7.0,19.0,55,0.00,,OVC100,0.00,VWS V14.01,2013-11-03 19:25:00,
2013-11-03 13:30:00,51.6,36.0,29.96,SE,134,16.0,20.0,55,0.00,,OVC100,0.00,VWS V14.01,2013-11-03 19:30:00,
2013-11-03 13:35:00,51.4,35.8,29.96,SE,145,12.0,20.0,55,0.00,,SCT110,0.00,VWS V14.01,2013-11-03 19:35:00,
2013-11-03 13:40:00,51.4,36.2,29.95,SE,126,6.0,20.0,56,0.00,,SCT110,0.00,VWS V14.01,2013-11-03 19:40:00,
2013-11-03 13:45:00,51.2,35.6,29.95,SE,134,17.0,20.0,55,0.00,,SCT110,0.00,VWS V14.01,2013-11-03 19:45:00,
2013-11-03 13:50:00,51.2,35.6,29.95,SE,132,23.0,23.0,55,0.00,,SCT110,0.00,VWS V14.01,2013-11-03 19:50:00,
2013-11-03 13:55:00,51.3,35.7,29.95,South,181,15.0,23.0,55,0.00,,SCT110,0.00,VWS V14.01,2013-11-03 19:55:00,
2013-11-03 14:00:00,51.3,35.7,29.94,ESE,120,12.0,22.0,55,0.00,,SCT110,0.00,VWS V14.01,2013-11-03 20:00:00,
2013-11-03 14:05:00,51.7,36.1,29.95,SE,124,14.0,22.0,55,0.00,,SCT110,0.00,VWS V14.01,2013-11-03 20:05:00,
2013-11-03 14:10:00,51.9,36.3,29.95,SE,134,13.0,22.0,55,0.00,,SCT110,0.00,VWS V14.01,2013-11-03 20:10:00,
2013-11-03 14:15:00,51.9,35.8,29.94,SE,139,12.0,22.0,54,0.00,,SCT110,0.00,VWS V14.01,2013-11-03 20:15:00,
2013-11-03 14:20:00,51.9,35.8,29.94,SSE,152,12.0,22.0,54,0.00,,OVC110,0.00,VWS V14.01,2013-11-03 20:20:00,
2013-11-03 14:25:00,51.6,35.5,29.94,ESE,120,12.0,22.0,54,0.00,,OVC110,0.00,VWS V14.01,2013-11-03 20:25:00,
2013-11-03 14:30:00,51.5,35.9,29.94,SE,125,10.0,16.0,55,0.00,,OVC110,0.00,VWS V14.01,2013-11-03 20:30:00,
2013-11-03 14:35:00,51.3,35.7,29.93,SSE,148,8.0,16.0,55,0.00,,CLR,0.00,VWS V14.01,2013-11-03 20:35:00,
2013-11-03 14:40:00,51.2,36.1,29.93,SE,133,6.0,16.0,56,0.00,,CLR,0.00,VWS V14.01,2013-11-03 20:40:00,
2013-11-03 14:45:00,51.1,36.0,29.93,ESE,123,10.0,16.0,56,0.00,,CLR,0.00,VWS V14.01,2013-11-03 20:45:00,
2013-11-03 14:50:00,51.0,35.9,29.93,ESE,120,12.0,20.0,56,0.00,,CLR,0.00,VWS V14.01,2013-11-03 20:50:00,
2013-11-03 14:55:00,51.0,35.9,29.93,SE,136,6.0,20.0,56,0.00,,CLR,0.00,VWS V14.01,2013-11-03 20:55:00,
2013-11-03 15:00:00,51.0,35.9,29.92,SE,134,6.0,11.0,56,0.00,,CLR,0.00,VWS V14.01,2013-11-03 21:00:00,
2013-11-03 15:05:00,51.2,36.1,29.92,SE,128,15.0,16.0,56,0.00,,CLR,0.00,VWS V14.01,2013-11-03 21:05:00,
2013-11-03 15:10:00,51.3,35.7,29.92,SE,128,10.0,20.0,55,0.00,,CLR,0.00,VWS V14.01,2013-11-03 21:10:00,
2013-11-03 15:15:00,51.4,35.3,29.92,SE,136,10.0,20.0,54,0.00,,CLR,0.00,VWS V14.01,2013-11-03 21:15:00,
2013-11-03 15:20:00,51.3,35.2,29.92,SE,146,8.0,21.0,54,0.00,,CLR,0.00,VWS V14.01,2013-11-03 21:20:00,
2013-11-03 15:25:00,51.2,35.6,29.92,ESE,113,7.0,21.0,55,0.00,,CLR,0.00,VWS V14.01,2013-11-03 21:25:00,
2013-11-03 15:30:00,51.2,35.1,29.91,SSE,151,10.0,17.0,54,0.00,,CLR,0.00,VWS V14.01,2013-11-03 21:30:00,
2013-11-03 15:35:00,51.1,35.0,29.91,SE,125,6.0,18.0,54,0.00,,CLR,0.00,VWS V14.01,2013-11-03 21:35:00,
2013-11-03 15:40:00,51.0,35.0,29.91,ESE,112,9.0,19.0,54,0.00,,CLR,0.00,VWS V14.01,2013-11-03 21:40:00,
2013-11-03 15:45:00,51.0,35.0,29.91,SSE,160,8.0,19.0,54,0.00,,CLR,0.00,VWS V14.01,2013-11-03 21:45:00,
2013-11-03 15:50:00,50.9,34.9,29.91,SE,128,8.0,19.0,54,0.00,,CLR,0.00,VWS V14.01,2013-11-03 21:50:00,
2013-11-03 15:55:00,50.9,34.9,29.91,SE,132,2.0,19.0,54,0.00,,CLR,0.00,VWS V14.01,2013-11-03 21:55:00,
2013-11-03 16:00:00,50.9,34.9,29.91,South,169,6.0,17.0,54,0.00,,CLR,0.00,VWS V14.01,2013-11-03 22:00:00,
2013-11-03 16:05:00,50.9,34.9,29.91,ESE,106,5.0,18.0,54,0.00,,CLR,0.00,VWS V14.01,2013-11-03 22:05:00,
2013-11-03 16:10:00,50.8,34.8,29.91,SE,131,11.0,18.0,54,0.00,,CLR,0.00,VWS V14.01,2013-11-03 22:10:00,
2013-11-03 16:15:00,50.8,34.8,29.91,SE,139,10.0,18.0,54,0.00,,CLR,0.00,VWS V14.01,2013-11-03 22:15:00,
2013-11-03 16:20:00,50.8,34.3,29.91,SE,131,9.0,19.0,53,0.00,,CLR,0.00,VWS V14.01,2013-11-03 22:20:00,
2013-11-03 16:25:00,50.7,34.7,29.91,ESE,103,9.0,19.0,54,0.00,,CLR,0.00,VWS V14.01,2013-11-03 22:25:00,
2013-11-03 16:30:00,50.5,34.5,29.91,ESE,110,6.0,10.0,54,0.00,,CLR,0.00,VWS V14.01,2013-11-03 22:30:00,
2013-11-03 16:35:00,50.4,34.9,29.91,SE,136,4.0,14.0,55,0.00,,CLR,0.00,VWS V14.01,2013-11-03 22:35:00,
2013-11-03 16:40:00,50.2,35.1,29.91,ESE,110,4.0,14.0,56,0.00,,CLR,0.00,VWS V14.01,2013-11-03 22:40:00,
2013-11-03 16:45:00,50.1,35.0,29.91,SE,134,6.0,14.0,56,0.00,,CLR,0.00,VWS V14.01,2013-11-03 22:45:00,
2013-11-03 16:50:00,49.9,35.3,29.91,SE,136,3.0,14.0,57,0.00,,CLR,0.00,VWS V14.01,2013-11-03 22:50:00,
2013-11-03 16:55:00,49.7,35.1,29.91,ESE,123,2.0,14.0,57,0.00,,CLR,0.00,VWS V14.01,2013-11-03 22:55:00,
2013-11-03 17:00:00,49.5,34.9,29.91,ESE,114,4.0,4.0,57,0.00,,CLR,0.00,VWS V14.01,2013-11-03 23:00:00,
2013-11-03 17:05:00,49.6,35.0,29.92,SE,146,6.0,11.0,57,0.00,,CLR,0.00,VWS V14.01,2013-11-03 23:05:00,
2013-11-03 17:10:00,49.7,35.1,29.92,ESE,122,7.0,11.0,57,0.00,,CLR,0.00,VWS V14.01,2013-11-03 23:10:00,
2013-11-03 17:15:00,49.6,35.0,29.92,ESE,106,7.0,12.0,57,0.00,,CLR,0.00,VWS V14.01,2013-11-03 23:15:00,
2013-11-03 17:20:00,49.6,35.0,29.92,SE,137,7.0,12.0,57,0.00,,CLR,0.00,VWS V14.01,2013-11-03 23:20:00,
2013-11-03 17:25:00,49.5,34.9,29.92,SE,143,2.0,12.0,57,0.00,,CLR,0.00,VWS V14.01,2013-11-03 23:25:00,
2013-11-03 17:30:00,49.3,34.7,29.92,SE,136,6.0,10.0,57,0.00,,CLR,0.00,VWS V14.01,2013-11-03 23:30:00,
2013-11-03 17:35:00,49.1,35.0,29.92,SE,132,4.0,10.0,58,0.00,,SCT110,0.00,VWS V14.01,2013-11-03 23:35:00,
2013-11-03 17:40:00,48.8,35.1,29.92,SE,131,3.0,12.0,59,0.00,,SCT110,0.00,VWS V14.01,2013-11-03 23:40:00,
2013-11-03 17:45:00,48.7,35.0,29.93,ESE,113,3.0,12.0,59,0.00,,SCT110,0.00,VWS V14.01,2013-11-03 23:45:00,
2013-11-03 17:50:00,48.5,35.3,29.93,ESE,102,7.0,12.0,60,0.00,,SCT110,0.00,VWS V14.01,2013-11-03 23:50:00,
2013-11-03 17:55:00,48.4,35.2,29.93,ESE,120,7.0,12.0,60,0.00,,SCT110,0.00,VWS V14.01,2013-11-03 23:55:00,
2013-11-03 18:00:00,48.3,35.1,29.93,SE,128,7.0,9.0,60,0.00,,SCT110,0.00,VWS V14.01,2013-11-04 00:00:00,
2013-11-03 18:05:00,48.1,34.9,29.93,SE,146,4.0,9.0,60,0.00,,SCT110,0.00,VWS V14.01,2013-11-04 00:05:00,
2013-11-03 18:10:00,48.1,35.3,29.93,ESE,108,6.0,9.0,61,0.00,,SCT110,0.00,VWS V14.01,2013-11-04 00:10:00,
2013-11-03 18:15:00,48.1,35.3,29.92,ESE,114,4.0,10.0,61,0.00,,SCT110,0.00,VWS V14.01,2013-11-04 00:15:00,
2013-11-03 18:20:00,48.0,35.2,29.93,SSE,162,3.0,10.0,61,0.00,,SCT110,0.00,VWS V14.01,2013-11-04 00:20:00,
2013-11-03 18:25:00,47.9,35.1,29.92,SSE,149,6.0,12.0,61,0.00,,SCT110,0.00,VWS V14.01,2013-11-04 00:25:00,
2013-11-03 18:30:00,47.9,35.1,29.92,SE,124,7.0,8.0,61,0.00,,SCT110,0.00,VWS V14.01,2013-11-04 00:30:00,
2013-11-03 18:35:00,47.8,35.0,29.92,SSE,155,3.0,8.0,61,0.00,,SCT110,0.00,VWS V14.01,2013-11-04 00:35:00,
2013-11-03 18:40:00,47.8,35.0,29.92,SE,131,4.0,11.0,61,0.00,,SCT110,0.00,VWS V14.01,2013-11-04 00:40:00,
2013-11-03 18:45:00,47.9,35.1,29.92,SSE,155,13.0,13.0,61,0.00,,SCT110,0.00,VWS V14.01,2013-11-04 00:45:00,
2013-11-03 18:50:00,47.8,35.0,29.92,SE,146,4.0,13.0,61,0.00,,CLR,0.00,VWS V14.01,2013-11-04 00:50:00,
2013-11-03 18:55:00,47.7,34.9,29.92,SE,146,5.0,13.0,61,0.00,,CLR,0.00,VWS V14.01,2013-11-04 00:55:00,
2013-11-03 19:00:00,47.7,34.9,29.92,SSE,148,4.0,10.0,61,0.00,,CLR,0.00,VWS V14.01,2013-11-04 01:00:00,
2013-11-03 19:05:00,47.7,34.9,29.92,SSW,192,4.0,13.0,61,0.00,,CLR,0.00,VWS V14.01,2013-11-04 01:05:00,
2013-11-03 19:10:00,47.7,34.9,29.91,SE,128,6.0,13.0,61,0.00,,CLR,0.00,VWS V14.01,2013-11-04 01:10:00,
2013-11-03 19:15:00,47.6,34.8,29.91,SSE,152,4.0,13.0,61,0.00,,CLR,0.00,VWS V14.01,2013-11-04 01:15:00,
2013-11-03 19:20:00,47.6,34.8,29.91,ESE,115,11.0,13.0,61,0.00,,CLR,0.00,VWS V14.01,2013-11-04 01:20:00,
2013-11-03 19:25:00,47.6,34.8,29.91,ESE,122,7.0,13.0,61,0.00,,CLR,0.00,VWS V14.01,2013-11-04 01:25:00,
2013-11-03 19:30:00,47.6,34.8,29.91,SSE,155,3.0,10.0,61,0.00,,CLR,0.00,VWS V14.01,2013-11-04 01:30:00,
2013-11-03 19:35:00,47.5,34.7,29.91,SSE,148,4.0,10.0,61,0.00,,CLR,0.00,VWS V14.01,2013-11-04 01:35:00,
2013-11-03 19:40:00,47.5,34.7,29.92,SE,137,4.0,11.0,61,0.00,,CLR,0.00,VWS V14.01,2013-11-04 01:40:00,
2013-11-03 19:45:00,47.5,35.1,29.92,SE,132,5.0,11.0,62,0.00,,CLR,0.00,VWS V14.01,2013-11-04 01:45:00,
2013-11-03 19:50:00,47.5,35.1,29.92,ESE,115,5.0,12.0,62,0.00,,CLR,0.00,VWS V14.01,2013-11-04 01:50:00,
2013-11-03 19:55:00,47.5,34.7,29.92,SE,135,6.0,15.0,61,0.00,,CLR,0.00,VWS V14.01,2013-11-04 01:55:00,
2013-11-03 20:00:00,47.5,34.7,29.92,South,188,4.0,8.0,61,0.00,,CLR,0.00,VWS V14.01,2013-11-04 02:00:00,
2013-11-03 20:05:00,47.4,35.0,29.92,SSE,152,3.0,8.0,62,0.00,,CLR,0.00,VWS V14.01,2013-11-04 02:05:00,
2013-11-03 20:10:00,47.3,35.0,29.92,SSW,203,3.0,8.0,62,0.00,,CLR,0.00,VWS V14.01,2013-11-04 02:10:00,
2013-11-03 20:15:00,47.2,34.9,29.92,SSE,160,5.0,8.0,62,0.00,,CLR,0.00,VWS V14.01,2013-11-04 02:15:00,
2013-11-03 20:20:00,47.2,34.9,29.92,SE,140,5.0,10.0,62,0.00,,CLR,0.00,VWS V14.01,2013-11-04 02:20:00,
2013-11-03 20:25:00,47.3,35.0,29.92,South,173,4.0,11.0,62,0.00,,CLR,0.00,VWS V14.01,2013-11-04 02:25:00,
2013-11-03 20:30:00,47.2,34.9,29.92,SSE,150,2.0,12.0,62,0.00,,CLR,0.00,VWS V14.01,2013-11-04 02:30:00,
2013-11-03 20:35:00,47.2,34.9,29.92,SSW,198,5.0,12.0,62,0.00,,SCT100,0.00,VWS V14.01,2013-11-04 02:35:00,
2013-11-03 20:40:00,47.2,35.3,29.92,SE,129,6.0,12.0,63,0.00,,SCT100,0.00,VWS V14.01,2013-11-04 02:40:00,
2013-11-03 20:45:00,47.3,35.0,29.92,SE,133,9.0,12.0,62,0.00,,SCT100,0.00,VWS V14.01,2013-11-04 02:45:00,
2013-11-03 20:50:00,47.3,35.0,29.92,ESE,117,4.0,12.0,62,0.00,,CLR,0.00,VWS V14.01,2013-11-04 02:50:00,
2013-11-03 20:55:00,47.3,35.4,29.92,South,177,2.0,12.0,63,0.00,,CLR,0.00,VWS V14.01,2013-11-04 02:55:00,
2013-11-03 21:00:00,47.2,35.3,29.92,SE,146,3.0,8.0,63,0.00,,CLR,0.00,VWS V14.01,2013-11-04 03:00:00,
2013-11-03 21:06:00,47.2,35.3,29.92,ESE,115,4.0,15.0,63,0.00,,CLR,0.00,VWS V14.01,2013-11-04 03:06:00,
2013-11-03 21:11:00,47.2,35.3,29.92,SE,139,6.0,15.0,63,0.00,,CLR,0.00,VWS V14.01,2013-11-04 03:11:00,
2013-11-03 21:16:00,47.1,35.2,29.92,SE,146,9.0,15.0,63,0.00,,CLR,0.00,VWS V14.01,2013-11-04 03:16:00,
2013-11-03 21:21:00,47.1,35.2,29.92,SSE,163,4.0,15.0,63,0.00,,CLR,0.00,VWS V14.01,2013-11-04 03:21:00,
2013-11-03 21:26:00,47.1,35.2,29.92,SE,139,5.0,15.0,63,0.00,,CLR,0.00,VWS V14.01,2013-11-04 03:26:00,
2013-11-03 21:31:00,47.1,35.2,29.92,SSE,164,4.0,15.0,63,0.00,,CLR,0.00,VWS V14.01,2013-11-04 03:31:00,
2013-11-03 21:36:00,47.1,35.2,29.92,SE,131,7.0,15.0,63,0.00,,CLR,0.00,VWS V14.01,2013-11-04 03:36:00,
2013-11-03 21:41:00,47.1,35.2,29.92,SE,141,7.0,15.0,63,0.00,,CLR,0.00,VWS V14.01,2013-11-04 03:41:00,
2013-11-03 21:46:00,47.3,35.4,29.92,SE,142,5.0,15.0,63,0.00,,CLR,0.00,VWS V14.01,2013-11-04 03:46:00,
2013-11-03 21:51:00,47.2,35.3,29.92,South,182,6.0,15.0,63,0.00,,SCT100,0.00,VWS V14.01,2013-11-04 03:51:00,
2013-11-03 21:56:00,47.3,35.4,29.92,SE,139,11.0,15.0,63,0.00,,SCT100,0.00,VWS V14.01,2013-11-04 03:56:00,
2013-11-03 22:01:00,47.3,35.4,29.92,South,181,2.0,13.0,63,0.00,,SCT100,0.00,VWS V14.01,2013-11-04 04:01:00,
2013-11-03 22:06:00,47.2,35.3,29.92,SSE,165,4.0,13.0,63,0.00,,SCT100,0.00,VWS V14.01,2013-11-04 04:06:00,
2013-11-03 22:11:00,47.3,35.4,29.92,SSW,193,6.0,13.0,63,0.00,,SCT100,0.00,VWS V14.01,2013-11-04 04:11:00,
2013-11-03 22:16:00,47.3,35.4,29.92,South,188,11.0,13.0,63,0.00,,SCT100,0.00,VWS V14.01,2013-11-04 04:16:00,
2013-11-03 22:21:00,47.3,35.4,29.92,SE,137,7.0,13.0,63,0.00,,SCT100,0.00,VWS V14.01,2013-11-04 04:21:00,
2013-11-03 22:26:00,47.3,35.4,29.92,South,184,4.0,13.0,63,0.00,,SCT100,0.00,VWS V14.01,2013-11-04 04:26:00,
2013-11-03 22:31:00,47.3,35.4,29.92,SSE,162,4.0,13.0,63,0.00,,SCT100,0.00,VWS V14.01,2013-11-04 04:31:00,
2013-11-03 22:36:00,47.3,35.4,29.91,SSE,150,5.0,13.0,63,0.00,,SCT100,0.00,VWS V14.01,2013-11-04 04:36:00,
2013-11-03 22:41:00,47.2,35.3,29.91,SE,146,6.0,13.0,63,0.00,,SCT100,0.00,VWS V14.01,2013-11-04 04:41:00,
2013-11-03 22:46:00,47.2,35.3,29.91,SE,131,7.0,15.0,63,0.00,,SCT100,0.00,VWS V14.01,2013-11-04 04:46:00,
2013-11-03 22:51:00,47.3,35.4,29.91,SSE,163,8.0,15.0,63,0.00,,SCT100,0.00,VWS V14.01,2013-11-04 04:51:00,
2013-11-03 22:55:00,47.4,35.5,29.91,SE,143,4.0,15.0,63,0.00,,SCT100,0.00,VWS V14.01,2013-11-04 04:55:00,
2013-11-03 23:00:00,47.3,35.4,29.91,SSE,158,5.0,13.0,63,0.00,,SCT100,0.00,VWS V14.01,2013-11-04 05:00:00,
2013-11-03 23:01:00,47.3,35.4,29.91,SSW,194,5.0,13.0,63,0.00,,SCT100,0.00,VWS V14.01,2013-11-04 05:01:00,
2013-11-03 23:02:00,47.3,35.4,29.91,SSE,153,9.0,13.0,63,0.00,,SCT100,0.00,VWS V14.01,2013-11-04 05:02:00,
2013-11-03 23:07:00,47.4,35.5,29.91,South,187,6.0,15.0,63,0.00,,SCT100,0.00,VWS V14.01,2013-11-04 05:07:00,
2013-11-03 23:12:00,47.4,35.5,29.91,SSE,158,10.0,15.0,63,0.00,,SCT100,0.00,VWS V14.01,2013-11-04 05:12:00,
2013-11-03 23:17:00,47.4,35.5,29.91,South,170,8.0,15.0,63,0.00,,SCT100,0.00,VWS V14.01,2013-11-04 05:17:00,
2013-11-03 23:22:00,47.5,35.5,29.91,South,173,5.0,16.0,63,0.00,,SCT100,0.00,VWS V14.01,2013-11-04 05:22:00,
2013-11-03 23:26:00,47.6,35.6,29.91,SSE,152,6.0,16.0,63,0.00,,SCT100,0.00,VWS V14.01,2013-11-04 05:26:00,
2013-11-03 23:31:00,47.6,35.6,29.91,SSE,148,6.0,14.0,63,0.00,,SCT100,0.00,VWS V14.01,2013-11-04 05:31:00,
2013-11-03 23:36:00,47.6,35.6,29.90,SE,141,3.0,14.0,63,0.00,,BKN090,0.00,VWS V14.01,2013-11-04 05:36:00,
2013-11-03 23:41:00,47.6,35.6,29.90,South,183,11.0,14.0,63,0.00,,BKN090,0.00,VWS V14.01,2013-11-04 05:41:00,
2013-11-03 23:46:00,47.5,35.5,29.90,SSE,151,7.0,14.0,63,0.00,,BKN090,0.00,VWS V14.01,2013-11-04 05:46:00,
2013-11-03 23:51:00,47.6,35.6,29.90,ESE,120,4.0,14.0,63,0.00,,OVC090,0.00,VWS V14.01,2013-11-04 05:51:00,
2013-11-03 23:56:00,47.5,35.5,29.90,SE,131,3.0,14.0,63,0.00,,SCT100,0.00,VWS V14.01,2013-11-04 05:56:00,